Retour au catalogue

RASSVET-3 7

ActifSciencePO
NORAD 68366·PAYLOAD·🇷🇺 Russia

Lancé Mar 23, 2026 depuis Plesetsk Cosmodrome

Loading…

Prochains Passages (prochaines 24 heures)

TLE

FraisSource: Space-Track

Époque: Sep 14, 2026, 21:28 UTC

1 68366U 26061G   26257.89454172  .00003792  00000-0  18299-3 0  9999
2 68366  82.2907 282.5664 0001629 157.3531 202.7774 15.18406328 27067

Suivez RASSVET-3 7 en temps réel avec AllMySat

Download on the App Store